Defiance, OH

5:11 AM EDT on July 25, 2016 (GMT -0400)
Defiance Memorial

Weather History for KDFI - November, 2013

Change the Weather History Date:

Saturday, November 16, 2013

  Actual Average Record
Temperature  
Mean Temperature 48 °F -  
Max Temperature 59 °F 46 °F 69 °F (1964)
Min Temperature 37 °F 29 °F 15 °F (1967)
Degree Days  
Heating Degree Days 17    
Moisture  
Dew Point 44 °F    
Average Humidity 78    
Maximum Humidity 86    
Minimum Humidity 69    
Precipitation  
Precipitation 0.01 in - - ()
Sea Level Pressure  
Sea Level Pressure 29.99 in    
Wind  
Wind Speed 8 mph (South)    
Max Wind Speed 18 mph    
Max Gust Speed 26 mph    
Visibility 9 miles    
Events Rain    
Averages and records for this station are not official NWS values.
T = Trace of Precipitation, MM = Missing Value Source: NWS Daily Summary

Daily Weather History Graph

Daily Weather History Graph

Search for Another Location

Airport or City:

Trip Planner

Search our weather history database for the weather conditions in past years. The results will help you decide how hot, cold, wet, or windy it might be!

Date:

Astronomy

Nov. 16, 2013 Rise Set
Actual Time 7:27 AM EST 5:17 PM EST
Civil Twilight 6:57 AM EST 5:46 PM EST
Nautical Twilight 6:24 AM EST 6:20 PM EST
Astronomical Twilight 5:51 AM EST 6:53 PM EST
Moon 4:52 PM EST (11/16) 6:22 AM EST (11/16)
Length of Visible Light 10h 49m
Length of Day
9h 49m
Waxing Gibbous, 99% of the Moon is Illuminated
Nov 16
Waxing Gibbous
Nov 17
Full
Nov 25
Last Quarter
Dec 2
New
Dec 9
First Quarter

Hourly Weather History & Observations

Time (EST) Temp. Windchill Dew Point Humidity Pressure Visibility Wind Dir Wind Speed Gust Speed Precip Events Conditions
12:53 AM 37.9 °F 34.4 °F 30.0 °F 73% 30.09 in 10.0 mi South 4.6 mph - N/A   Clear
1:53 AM 37.9 °F 33.5 °F 32.0 °F 79% 30.09 in 10.0 mi South 5.8 mph - N/A   Clear
2:53 AM 39.0 °F 35.7 °F 33.1 °F 79% 30.09 in 10.0 mi South 4.6 mph - N/A   Clear
3:53 AM 41.0 °F 37.1 °F 37.0 °F 86% 30.09 in 8.0 mi South 5.8 mph - N/A   Partly Cloudy
4:53 AM 43.0 °F 39.5 °F 37.9 °F 82% 30.09 in 8.0 mi South 5.8 mph - N/A   Mostly Cloudy
5:09 AM 42.8 °F 40.1 °F 37.4 °F 81% 30.08 in 8.0 mi South 4.6 mph - N/A   Mostly Cloudy
5:53 AM 44.1 °F 41.5 °F 39.0 °F 82% 30.09 in 8.0 mi SSE 4.6 mph - N/A   Mostly Cloudy
6:01 AM 44.6 °F 42.2 °F 39.2 °F 81% 30.07 in 8.0 mi SSE 4.6 mph - N/A   Mostly Cloudy
6:53 AM 45.0 °F 41.8 °F 39.9 °F 82% 30.09 in 8.0 mi SSE 5.8 mph - N/A   Overcast
7:53 AM 46.0 °F 43.1 °F 41.0 °F 83% 30.10 in 7.0 mi South 5.8 mph - N/A   Overcast
8:53 AM 48.0 °F - 42.1 °F 80% 30.09 in 7.0 mi South 5.8 mph - N/A   Overcast
9:53 AM 48.9 °F - 44.1 °F 83% 30.08 in 7.0 mi SSE 8.1 mph - N/A   Overcast
10:53 AM 51.1 °F - 45.0 °F 80% 30.07 in 9.0 mi South 6.9 mph - N/A   Overcast
11:53 AM 53.1 °F - 46.0 °F 77% 30.05 in 9.0 mi South 8.1 mph - N/A   Overcast
12:53 PM 55.9 °F - 48.0 °F 75% 30.00 in 9.0 mi South 12.7 mph - N/A   Overcast
1:53 PM 57.0 °F - 46.9 °F 69% 29.97 in 9.0 mi South 18.4 mph 26.5 mph N/A   Overcast
2:53 PM 55.9 °F - 46.9 °F 72% 29.95 in 7.0 mi South 13.8 mph 20.7 mph N/A   Overcast
3:53 PM 55.9 °F - 46.9 °F 72% 29.94 in 9.0 mi South 13.8 mph - N/A   Overcast
4:53 PM 55.0 °F - 46.9 °F 74% 29.94 in 7.0 mi South 10.4 mph 18.4 mph N/A   Overcast
5:32 PM 55.4 °F - 48.2 °F 77% 29.92 in 10.0 mi South 15.0 mph 24.2 mph N/A   Overcast
5:53 PM 55.0 °F - 48.0 °F 77% 29.93 in 10.0 mi South 13.8 mph 20.7 mph N/A   Overcast
6:53 PM 55.9 °F - 48.9 °F 77% 29.91 in 10.0 mi South 13.8 mph 24.2 mph N/A   Overcast
7:53 PM 57.0 °F - 50.0 °F 77% 29.89 in 10.0 mi South 12.7 mph 23.0 mph N/A   Overcast
8:53 PM 57.0 °F - 50.0 °F 77% 29.87 in 10.0 mi South 13.8 mph 21.9 mph N/A   Overcast
9:53 PM 59.0 °F - 51.1 °F 75% 29.84 in 10.0 mi South 16.1 mph 26.5 mph N/A   Overcast
10:27 PM 57.2 °F - 51.8 °F 82% 29.83 in 10.0 mi South 13.8 mph 23.0 mph 0.00 in Rain Light Rain
10:53 PM 57.9 °F - 52.0 °F 81% 29.83 in 10.0 mi South 12.7 mph 23.0 mph 0.01 in   Scattered Clouds
11:24 PM 59.0 °F - 51.8 °F 77% 29.82 in 10.0 mi South 13.8 mph 24.2 mph N/A   Overcast
11:53 PM 59.0 °F - 53.1 °F 81% 29.83 in 10.0 mi South 15.0 mph 23.0 mph 0.00 in Rain Light Rain